Temp
-7 -7 -7 -7 -6 -6 -6 -6 -5 -5 -4 -4 -4 -4 -4 -4 -4 -4 -4 -5 -6 -6 -6 -6 -6 -6 -7 -6 -6 -6 -8 -7 -7 -7 -7 -7 -7 -7 -6 -6 -5 -5 -5 -6 -6
-7 -7 -7 -7 -7 -7 -6 -6 -6 -5 -4 -4 -4 -4 -3 -4 -3 -4 -5 -4 -5 -5 -6 -6 -6 -6 -6 -5 -6 -7 -7 -7 -7 -8 -8 -7 -7 -7 -6 -7 -6 -5 -6 -6 -7
-8 -7 -7 -7 -7 -7 -6 -6 -6 -5 -5 -5 -4 -4 -4 -4 -3 -4 -5 -5 -5 -4 -6 -5 -5 -6 -7 -6 -6 -7 -7 -6 -7 -7 -7 -7 -7 -7 -7 -7 -6 -6 -6 -7 -7
-8 -8 -8 -8 -8 -8 -7 -7 -7 -6 -5 -5 -5 -4 -4 -4 -4 -4 -4 -4 -5 -4 -4 -5 -5 -6 -7 -6 -8 -8 -7 -7 -8 -7 -7 -6 -7 -7 -7 -6 -6 -7 -7 -6 -6
-9 -8 -8 -8 -8 -8 -8 -7 -7 -7 -6 -6 -6 -5 -5 -5 -4 -5 -4 -4 -4 -4 -4 -4 -4 -5 -7 -6 -7 -8 -8 -7 -7 -7 -7 -6 -7 -8 -6 -7 -6 -7 -7 -6 -6
-9 -9 -8 -8 -8 -9 -8 -8 -8 -8 -7 -6 -6 -6 -5 -5 -5 -5 -5 -4 -4 -5 -5 -5 -5 -6 -6 -6 -7 -8 -8 -7 -8 -7 -7 -7 -8 -7 -7 -7 -6 -6 -6 -6 -6
-9 -9 -9 -9 -9 -9 -9 -8 -8 -8 -8 -7 -7 -6 -6 -5 -5 -5 -5 -4 -4 -5 -5 -5 -4 -4 -4 -5 -6 -8 -8 -7 -7 -7 -7 -7 -7 -7 -7 -7 -6 -6 -6 -7 -6
-9 -9 -9 -9 -9 -9 -9 -9 -9 -8 -8 -7 -7 -7 -6 -6 -6 -5 -5 -5 -5 -5 -5 -5 -4 -4 -4 -5 -5 -8 -7 -7 -8 -7 -7 -7 -7 -7 -7 -7 -7 -6 -6 -7 -7
-10 -10 -10 -9 -9 -9 -9 -9 -9 -9 -8 -8 -8 -7 -7 -6 -6 -5 -5 -5 -5 -5 -5 -5 -5 -5 -4 -5 -6 -6 -7 -8 -7 -7 -7 -7 -7 -7 -7 -7 -7 -6 -5 -6 -6
-10 -10 -10 -10 -10 -10 -10 -9 -9 -9 -9 -8 -8 -8 -7 -7 -6 -6 -6 -5 -5 -5 -5 -5 -5 -5 -5 -5 -6 -6 -8 -7 -7 -7 -7 -7 -7 -7 -7 -7 -8 -7 -7 -5 -5
-10 -10 -10 -10 -10 -10 -10 -10 -9 -9 -9 -9 -8 -8 -8 -7 -7 -6 -6 -6 -6 -5 -5 -5 -5 -5 -5 -6 -6 -8 -7 -7 -8 -7 -7 -6 -7 -7 -7 -6 -7 -7 -7 -6 -6
-9 -10 -10 -10 -10 -10 -10 -10 -10 -9 -9 -9 -8 -9 -8 -8 -7 -7 -7 -6 -6 -6 -6 -6 -5 -5 -6 -6 -7 -7 -7 -7 -7 -7 -7 -7 -6 -7 -7 -7 -7 -7 -7 -6 -6
-10 -9 -10 -10 -10 -10 -10 -10 -10 -10 -9 -9 -9 -8 -9 -8 -8 -8 -7 -7 -6 -6 -6 -6 -6 -7 -8 -7 -8 -8 -7 -8 -7 -7 -7 -7 -6 -6 -7 -7 -7 -7 -6 -6 -6
-10 -10 -9 -10 -10 -10 -10 -10 -10 -10 -9 -8 -9 -9 -8 -9 -8 -8 -7 -7 -7 -7 -6 -6 -7 -8 -8 -8 -8 -7 -8 -7 -7 -7 -7 -7 -6 -6 -6 -6 -6 -6 -6 -6 -6
-10 -10 -10 -9 -10 -10 -10 -10 -10 -10 -9 -9 -9 -9 -9 -8 -8 -8 -8 -7 -7 -7 -7 -6 -8 -8 -8 -7 -7 -6 -7 -7 -7 -7 -7 -6 -6 -6 -6 -6 -6 -6 -6 -7 -7
-10 -10 -10 -10 -10 -9 -10 -10 -10 -10 -9 -9 -9 -9 -8 -9 -9 -8 -8 -8 -7 -7 -7 -7 -7 -8 -7 -8 -7 -6 -7 -7 -7 -6 -5 -7 -6 -6 -6 -7 -7 -6 -6 -7 -7
-10 -10 -10 -10 -10 -10 -10 -10 -10 -9 -9 -9 -10 -10 -9 -9 -9 -9 -8 -8 -8 -7 -7 -7 -7 -7 -7 -7 -6 -7 -6 -6 -6 -6 -6 -7 -6 -6 -6 -7 -7 -6 -6 -7 -7
-11 -10 -10 -10 -10 -10 -10 -10 -9 -9 -9 -10 -10 -10 -10 -9 -9 -9 -9 -8 -8 -8 -8 -7 -8 -7 -7 -7 -7 -6 -7 -6 -6 -7 -7 -8 -7 -6 -7 -8 -7 -7 -7 -7 -7
-11 -11 -10 -10 -10 -10 -10 -9 -9 -9 -10 -10 -10 -10 -10 -10 -9 -9 -9 -9 -8 -8 -8 -8 -7 -8 -8 -8 -7 -7 -7 -7 -7 -7 -7 -7 -7 -7 -8 -7 -8 -8 -7 -7 -7
-11 -11 -10 -11 -10 -10 -10 -9 -9 -10 -11 -11 -11 -10 -10 -10 -10 -10 -9 -9 -9 -9 -9 -8 -8 -8 -8 -8 -8 -7 -7 -8 -7 -7 -7 -7 -7 -7 -8 -7 -7 -7 -8 -8 -7
-12 -11 -11 -11 -11 -10 -9 -9 -10 -11 -11 -10 -11 -11 -11 -10 -10 -10 -9 -9 -9 -9 -9 -9 -9 -8 -8 -8 -8 -8 -8 -8 -8 -8 -7 -7 -7 -7 -7 -8 -9 -8 -8 -9 -8
-12 -12 -12 -12 -11 -11 -10 -11 -11 -12 -11 -11 -11 -11 -10 -10 -10 -10 -10 -10 -9 -9 -9 -9 -9 -8 -8 -8 -9 -8 -8 -8 -7 -7 -8 -8 -7 -7 -7 -7 -7 -7 -9 -10 -9
-13 -12 -12 -12 -12 -12 -12 -12 -12 -12 -12 -11 -11 -11 -11 -10 -10 -9 -10 -10 -10 -9 -9 -9 -9 -9 -8 -8 -8 -9 -8 -8 -8 -8 -8 -8 -7 -7 -8 -8 -8 -7 -9 -9 -10
-14 -13 -13 -13 -13 -12 -12 -12 -12 -13 -12 -13 -12 -11 -11 -11 -11 -10 -10 -10 -10 -10 -9 -9 -9 -9 -8 -8 -9 -8 -9 -8 -8 -8 -8 -8 -8 -8 -8 -8 -8 -9 -10 -9 -9
-15 -13 -13 -13 -13 -13 -13 -13 -12 -13 -12 -12 -12 -12 -11 -11 -11 -10 -10 -10 -10 -10 -10 -10 -9 -10 -9 -8 -9 -9 -9 -9 -8 -8 -8 -8 -8 -8 -8 -9 -8 -9 -8 -8 -7
-13 -13 -13 -13 -13 -12 -13 -13 -13 -13 -12 -12 -13 -12 -12 -11 -11 -10 -11 -10 -11 -10 -10 -10 -10 -10 -9 -8 -8 -8 -9 -9 -9 -9 -9 -9 -8 -8 -9 -9 -9 -8 -8 -8 -8
-14 -13 -13 -13 -12 -13 -13 -13 -13 -14 -14 -13 -12 -13 -12 -12 -11 -11 -11 -11 -10 -11 -10 -10 -10 -9 -9 -9 -9 -8 -8 -9 -9 -10 -9 -9 -9 -9 -9 -9 -9 -9 -9 -8 -8
Height
5919 5922 5924 5925 5926 5929 5929 5930 5932 5933 5933 5934 5935 5936 5937 5939 5940 5941 5942 5943 5943 5944 5947 5947 5948 5949 5950 5951 5950 5947 5951 5949 5946 5946 5944 5945 5948 5949 5948 5943 5942 5938 5935 5930 5925
5916 5919 5921 5923 5924 5926 5927 5928 5930 5931 5931 5932 5933 5935 5936 5937 5939 5940 5941 5941 5941 5943 5945 5946 5948 5949 5947 5948 5953 5954 5956 5955 5950 5947 5947 5949 5949 5952 5948 5946 5945 5940 5934 5929 5928
5912 5915 5918 5919 5921 5923 5925 5926 5928 5928 5929 5930 5931 5932 5933 5935 5938 5939 5939 5938 5940 5941 5942 5944 5946 5948 5950 5950 5947 5951 5955 5956 5954 5949 5949 5950 5950 5948 5946 5948 5947 5941 5935 5932 5930
5908 5911 5914 5916 5917 5919 5921 5923 5925 5926 5926 5927 5929 5930 5931 5933 5937 5938 5938 5937 5937 5940 5940 5942 5943 5946 5950 5949 5948 5950 5953 5956 5954 5957 5953 5951 5949 5947 5941 5943 5941 5937 5934 5932 5930
5903 5907 5910 5913 5915 5916 5918 5920 5922 5923 5923 5925 5926 5927 5929 5931 5935 5934 5935 5935 5936 5937 5939 5941 5942 5944 5947 5947 5945 5950 5952 5952 5957 5957 5955 5953 5950 5944 5944 5948 5942 5934 5934 5934 5931
5898 5902 5905 5909 5911 5913 5914 5916 5918 5920 5921 5922 5923 5925 5926 5929 5931 5932 5933 5933 5934 5935 5937 5939 5940 5942 5943 5945 5945 5949 5954 5952 5954 5957 5956 5955 5950 5945 5946 5948 5943 5936 5933 5932 5927
5892 5896 5900 5904 5907 5909 5911 5913 5914 5916 5917 5918 5919 5921 5923 5926 5927 5929 5931 5932 5931 5933 5935 5936 5937 5939 5942 5943 5943 5944 5948 5951 5953 5955 5955 5954 5953 5953 5947 5947 5943 5936 5930 5929 5922
5886 5890 5894 5898 5902 5904 5907 5909 5910 5912 5913 5914 5916 5918 5920 5924 5924 5926 5928 5929 5929 5931 5933 5934 5938 5941 5943 5945 5942 5943 5945 5948 5945 5950 5954 5954 5951 5951 5950 5948 5941 5935 5929 5925 5925
5880 5884 5888 5892 5896 5900 5902 5904 5906 5907 5909 5910 5913 5915 5917 5919 5921 5923 5924 5926 5927 5928 5930 5933 5935 5938 5941 5943 5942 5940 5943 5946 5947 5941 5947 5948 5948 5948 5944 5942 5939 5934 5930 5924 5929
5874 5878 5882 5886 5890 5893 5896 5900 5901 5902 5905 5907 5909 5912 5915 5916 5919 5919 5921 5923 5924 5925 5927 5929 5931 5935 5938 5940 5942 5940 5944 5945 5939 5943 5944 5946 5945 5945 5944 5942 5936 5936 5926 5929 5931
5868 5872 5876 5880 5883 5887 5891 5893 5896 5898 5902 5903 5906 5908 5911 5912 5915 5916 5918 5919 5921 5923 5924 5926 5928 5932 5936 5938 5940 5940 5944 5945 5945 5945 5945 5947 5946 5944 5941 5940 5936 5933 5938 5929 5930
5861 5866 5870 5873 5877 5881 5884 5885 5891 5892 5896 5898 5900 5904 5906 5909 5911 5913 5915 5917 5918 5920 5920 5923 5927 5929 5933 5935 5938 5940 5941 5944 5944 5945 5943 5945 5946 5945 5944 5944 5941 5937 5933 5932 5931
5852 5858 5862 5867 5871 5876 5879 5881 5884 5885 5889 5894 5896 5899 5903 5905 5908 5910 5912 5913 5915 5917 5918 5921 5925 5926 5931 5933 5935 5938 5939 5939 5940 5944 5940 5942 5944 5947 5943 5939 5938 5937 5939 5933 5931
5844 5850 5855 5859 5866 5868 5870 5876 5878 5880 5882 5891 5891 5894 5896 5900 5905 5906 5908 5911 5912 5914 5915 5918 5922 5923 5928 5927 5930 5932 5935 5938 5941 5941 5941 5943 5941 5942 5937 5937 5935 5937 5933 5934 5931
5836 5842 5847 5852 5857 5861 5869 5872 5873 5876 5877 5888 5886 5887 5892 5896 5900 5903 5904 5906 5909 5910 5912 5917 5918 5920 5921 5924 5926 5929 5931 5933 5935 5936 5935 5938 5938 5933 5933 5932 5932 5931 5929 5927 5926
5828 5834 5839 5844 5849 5853 5859 5862 5867 5872 5871 5881 5882 5884 5888 5891 5895 5896 5899 5902 5905 5906 5908 5911 5914 5915 5918 5920 5922 5924 5927 5928 5930 5931 5933 5935 5934 5932 5928 5926 5930 5930 5929 5927 5926
5821 5826 5831 5836 5841 5847 5853 5857 5862 5862 5873 5879 5879 5881 5884 5886 5890 5892 5894 5898 5901 5903 5906 5909 5911 5912 5915 5918 5919 5921 5923 5925 5928 5929 5930 5931 5930 5928 5924 5920 5917 5924 5925 5925 5923
5813 5819 5824 5829 5834 5839 5844 5849 5852 5859 5868 5875 5876 5881 5879 5883 5886 5889 5890 5893 5897 5899 5901 5903 5908 5912 5917 5916 5917 5917 5920 5921 5923 5924 5926 5927 5929 5924 5922 5915 5912 5917 5921 5921 5918
5806 5812 5818 5822 5826 5831 5836 5840 5845 5855 5866 5870 5869 5873 5877 5879 5883 5885 5888 5890 5893 5895 5898 5899 5901 5905 5910 5912 5913 5914 5915 5920 5920 5920 5922 5923 5924 5922 5911 5910 5909 5917 5918 5918 5918
5800 5805 5811 5814 5819 5824 5829 5833 5839 5848 5858 5858 5860 5868 5874 5876 5881 5884 5884 5887 5888 5890 5893 5897 5898 5900 5904 5907 5908 5910 5914 5914 5916 5918 5919 5918 5918 5917 5908 5907 5887 5914 5911 5916 5919
5795 5799 5805 5808 5813 5817 5822 5828 5834 5844 5849 5848 5852 5859 5861 5866 5870 5875 5881 5884 5885 5887 5890 5892 5895 5899 5899 5903 5905 5907 5908 5909 5911 5914 5917 5915 5914 5912 5904 5905 5906 5910 5904 5910 5914
5790 5794 5799 5802 5808 5811 5817 5821 5826 5834 5837 5839 5842 5850 5855 5860 5863 5866 5873 5878 5882 5883 5885 5888 5890 5892 5896 5898 5901 5904 5904 5906 5907 5911 5912 5910 5908 5903 5906 5898 5895 5899 5879 5884 5908
5784 5787 5793 5797 5802 5807 5811 5814 5817 5824 5829 5829 5831 5841 5850 5855 5858 5861 5867 5867 5872 5876 5879 5882 5883 5885 5890 5893 5894 5897 5900 5902 5903 5906 5906 5906 5903 5898 5895 5895 5894 5897 5888 5897 5899
5778 5782 5788 5790 5796 5799 5803 5807 5810 5818 5818 5818 5820 5832 5839 5844 5849 5856 5861 5862 5864 5866 5871 5873 5877 5878 5882 5889 5892 5891 5889 5895 5897 5899 5902 5899 5899 5898 5890 5887 5892 5895 5897 5896 5891
5773 5773 5779 5784 5788 5793 5797 5803 5804 5807 5811 5815 5819 5827 5832 5836 5838 5844 5856 5857 5856 5857 5860 5865 5869 5872 5874 5879 5881 5884 5887 5889 5891 5893 5893 5892 5891 5893 5892 5892 5890 5896 5895 5895 5894
5768 5773 5779 5780 5782 5788 5791 5795 5799 5802 5807 5810 5814 5819 5823 5826 5833 5838 5848 5849 5847 5850 5853 5856 5859 5865 5868 5874 5877 5878 5881 5881 5884 5888 5890 5888 5887 5889 5889 5890 5895 5893 5891 5889 5888
5767 5769 5773 5775 5780 5783 5786 5790 5794 5797 5800 5803 5805 5807 5812 5816 5819 5824 5832 5836 5838 5843 5848 5852 5854 5858 5861 5867 5868 5870 5876 5876 5878 5879 5880 5879 5885 5886 5887 5886 5884 5883 5886 5884 5885
Wind_Speed
24 24 24 23 23 20 18 16 11 10 7 6 5 4 6 8 7 7 5 12 14 14 12 9 9 9 8 6 6 17 17 19 21 19 15 23 23 14 15 24 22 20 17 18 20
27 26 26 27 26 22 20 18 13 11 9 8 8 6 8 10 7 9 8 11 15 16 16 14 12 8 11 10 17 13 7 10 16 16 18 22 24 15 12 19 21 18 19 19 18
30 28 28 28 28 26 23 20 16 13 11 11 11 10 10 12 7 8 10 13 16 17 19 17 17 16 9 4 7 17 16 7 11 11 10 18 18 24 22 16 18 21 22 17 19
33 31 29 27 27 26 25 21 17 14 13 14 14 14 14 13 11 10 15 15 17 18 18 18 20 19 17 8 11 11 13 7 11 9 8 16 18 21 24 10 11 23 23 23 24
37 34 30 29 27 26 27 24 16 15 15 16 15 17 15 13 10 15 11 17 15 18 21 20 21 21 21 17 14 4 13 7 6 14 7 13 9 19 23 20 11 16 17 21 22
36 36 36 32 30 29 28 26 19 17 17 18 19 18 18 15 12 15 14 16 17 20 23 21 24 24 25 22 20 10 11 16 6 8 13 14 9 19 29 31 12 17 16 21 25
40 38 36 35 35 31 29 28 22 20 20 19 20 18 18 17 16 16 17 15 17 16 21 24 27 27 23 23 19 16 10 13 9 11 10 7 16 18 23 21 21 18 23 28 32
42 42 38 36 33 31 30 29 26 22 19 20 20 18 18 15 17 17 16 16 16 16 18 23 22 21 23 18 19 9 13 14 12 16 12 8 14 16 17 22 22 26 23 34 34
43 42 43 40 38 36 34 31 28 22 21 21 20 18 18 18 17 17 18 17 16 16 18 19 21 24 23 18 15 16 11 14 13 19 12 7 9 22 22 19 21 24 6 35 30
41 42 42 40 39 36 35 34 31 27 20 21 21 20 20 17 14 17 18 17 15 16 17 18 20 21 19 20 17 8 12 19 25 11 7 4 7 19 20 25 17 25 34 35 33
41 40 39 39 38 37 36 34 31 30 23 22 23 20 17 16 16 16 17 18 17 17 17 18 19 18 16 17 13 2 17 22 11 10 6 11 7 11 24 23 21 20 36 32 30
41 40 38 36 35 35 33 33 28 29 26 23 27 23 21 16 13 13 16 17 18 18 18 20 18 16 17 19 14 3 22 16 5 10 3 13 4 6 14 18 26 30 35 26 26
41 40 38 37 36 34 33 33 30 30 28 24 23 27 21 26 18 12 13 17 18 19 19 20 16 6 8 12 12 16 20 13 11 10 16 11 8 5 19 25 20 23 15 27 27
41 40 40 38 36 36 36 32 31 32 31 23 25 23 27 26 24 21 15 15 18 18 21 21 19 15 17 25 22 22 16 12 9 13 15 13 10 14 28 25 27 22 20 20 25
39 40 40 39 37 37 33 30 32 31 32 17 22 28 23 23 19 24 22 16 16 19 22 18 23 23 23 17 24 22 14 14 17 10 19 16 17 20 23 30 32 29 24 24 26
37 36 37 38 38 38 35 34 32 32 33 16 18 21 21 21 19 20 20 22 18 21 24 24 20 25 28 20 16 18 20 23 20 12 7 0 14 18 26 30 21 21 26 26 19
38 36 34 34 36 37 33 35 34 37 26 18 17 19 21 20 21 20 21 20 18 20 20 23 25 26 23 22 19 19 19 20 11 7 3 5 11 15 30 28 27 27 23 21 16
38 36 35 34 32 32 35 38 38 34 26 18 15 12 13 19 21 20 20 20 20 17 19 21 18 17 13 16 16 20 15 17 15 7 14 20 15 23 23 31 35 32 25 22 15
34 34 35 34 35 35 35 36 36 32 21 20 26 20 14 10 11 14 14 19 19 19 15 19 20 10 18 18 18 19 20 9 19 15 14 16 20 21 32 32 29 28 24 20 17
30 31 31 31 31 33 35 35 32 31 26 36 32 16 22 20 17 16 21 17 18 18 15 14 21 17 7 16 20 20 16 12 12 22 17 19 19 22 29 31 15 26 9 16 18
28 28 28 30 30 30 30 30 32 29 33 46 42 33 31 33 26 24 20 23 17 18 20 18 18 22 15 21 23 18 24 21 19 15 15 17 22 21 29 28 33 34 32 10 14
28 27 26 29 29 30 30 28 31 33 41 49 49 41 39 33 33 32 18 17 21 19 21 21 25 25 25 19 17 21 21 27 27 20 22 25 34 38 33 47 42 27 24 15 7
30 30 28 28 27 24 22 25 28 36 41 50 53 49 43 35 35 37 24 18 24 22 28 28 27 27 32 27 24 24 12 28 17 17 21 29 35 37 35 40 35 29 27 17 14
29 30 27 32 29 30 28 26 29 32 48 46 52 47 46 49 43 40 33 28 29 25 31 34 35 30 29 29 22 27 21 15 28 24 25 24 30 38 39 39 32 22 28 22 11
19 28 29 28 29 30 31 29 31 37 44 50 47 40 37 43 44 41 41 34 34 33 34 37 37 38 35 32 30 26 19 24 32 34 32 30 31 32 30 22 29 29 29 15 20
23 19 15 22 28 27 32 33 34 37 31 35 34 33 35 39 39 40 42 44 37 34 41 39 41 38 39 31 37 34 31 18 22 23 28 32 37 33 35 36 33 35 22 19 20
20 20 19 20 19 21 26 29 28 28 31 31 37 39 34 36 41 42 40 52 54 37 43 43 44 41 39 34 33 42 38 32 21 17 17 29 23 30 31 33 34 37 13 15 18
Wind_Direction
210 213 220 231 237 245 254 262 271 271 256 232 240 255 226 215 219 228 253 219 194 189 182 195 182 142 168 140 110 85 68 35 21 34 30 348 343 47 29 10 11 41 34 26 21
213 215 221 228 239 246 251 260 264 259 256 236 240 242 242 228 221 223 238 238 216 199 197 200 200 186 179 172 122 81 356 87 65 20 11 323 337 326 36 11 15 24 22 19 13
217 218 222 230 240 246 250 259 264 253 238 234 235 244 242 238 230 218 230 235 230 216 203 202 204 182 179 192 19 21 31 86 39 39 337 321 344 346 3 9 358 8 14 4 352
219 221 222 228 241 249 252 258 261 253 238 232 229 237 241 243 223 226 237 253 229 224 213 201 202 186 162 139 75 337 346 345 18 6 282 309 319 334 335 323 354 12 355 350 348
221 224 227 229 236 247 253 259 252 252 243 233 236 236 240 247 236 234 230 240 246 221 220 202 203 194 180 184 128 18 327 318 40 309 318 321 316 297 306 324 316 16 348 343 348
221 225 229 232 236 241 252 255 257 246 245 239 236 238 238 242 237 236 238 238 241 216 217 210 207 198 196 195 141 139 228 266 201 249 294 328 292 310 329 348 330 333 354 345 348
221 223 226 231 237 241 246 253 257 256 244 242 240 238 239 239 236 238 231 238 237 225 218 211 210 207 202 204 173 182 236 241 218 209 244 289 307 303 327 342 339 338 340 353 349
220 222 226 228 233 238 243 251 257 252 247 240 237 235 238 241 240 235 229 231 233 228 221 222 228 212 206 212 203 176 225 227 272 220 207 265 309 341 306 327 348 338 331 339 350
222 223 225 229 233 237 242 249 250 248 243 239 233 233 234 236 233 237 235 233 230 227 223 222 220 219 214 212 214 174 212 249 255 146 191 223 333 322 291 327 352 353 334 331 357
226 225 227 227 229 233 236 239 241 241 239 236 230 236 231 237 236 235 234 235 230 227 223 222 220 216 214 213 202 207 295 299 318 163 150 111 318 298 304 323 325 343 336 316 356
230 228 227 227 229 232 237 237 238 238 235 237 229 232 221 228 229 233 231 232 229 227 224 222 219 216 216 212 194 126 288 317 26 40 359 295 197 340 307 323 316 319 305 333 351
232 232 231 230 231 231 232 234 235 242 231 233 232 224 225 215 222 228 231 230 228 223 226 225 222 216 215 211 177 170 280 287 25 318 250 339 256 261 297 291 290 305 324 350 353
231 234 234 233 232 233 234 234 233 240 236 228 237 231 232 226 228 230 232 230 227 223 223 229 214 136 290 238 214 227 253 274 293 272 324 323 286 283 261 260 276 297 343 354 344
230 230 233 235 235 234 233 233 238 240 241 220 236 236 235 239 229 237 228 232 228 224 226 218 197 180 215 242 227 221 214 235 226 247 236 228 270 264 271 269 270 14 352 351 338
229 230 230 232 235 237 237 240 239 242 244 239 236 240 240 240 228 227 233 230 229 227 226 224 197 196 217 243 243 237 204 222 226 237 253 220 240 277 282 279 292 301 332 341 326
227 229 230 231 233 235 233 234 235 236 238 234 247 249 238 234 227 233 226 231 233 230 229 217 221 212 229 241 238 229 215 220 224 241 263 174 247 256 279 266 281 309 320 323 312
227 227 228 229 231 232 233 234 234 233 232 219 234 264 243 234 221 233 237 223 236 239 235 232 229 231 239 249 244 232 234 233 224 197 272 234 300 261 273 287 297 290 316 307 303
227 226 226 227 228 229 230 231 230 232 227 200 193 273 282 229 227 225 242 240 229 239 234 224 232 243 270 260 253 238 234 233 195 210 264 258 260 236 282 277 275 292 300 305 302
225 226 227 227 228 228 228 228 228 229 215 196 201 208 203 259 233 244 248 255 233 227 235 240 210 184 280 270 248 236 229 221 224 208 254 293 287 229 260 254 255 264 282 293 284
220 220 221 224 225 226 227 229 228 222 203 204 204 198 211 188 210 235 260 270 251 230 243 219 224 195 204 260 273 232 231 231 245 229 230 265 276 269 266 271 215 319 284 294 276
215 214 215 220 221 224 229 230 227 214 207 211 212 204 200 197 195 203 225 254 254 233 215 249 244 202 184 218 260 272 207 207 222 228 247 263 268 279 272 284 284 288 267 260 272
219 220 219 224 226 226 227 229 226 206 208 217 217 207 204 198 192 203 216 229 260 232 245 211 245 218 193 192 235 267 222 220 229 221 231 252 256 257 267 272 273 291 268 166 304
223 225 222 224 225 225 221 220 220 204 210 223 225 214 208 205 208 202 189 190 208 223 226 213 225 244 214 207 212 233 241 235 219 246 240 245 255 264 277 282 287 288 328 338 343
222 227 224 224 224 224 224 215 209 210 211 222 231 223 221 223 227 218 195 207 205 199 220 227 222 230 229 210 216 236 207 231 223 239 253 256 252 260 281 292 296 297 325 313 328
222 228 221 226 220 223 223 224 216 214 222 226 237 240 238 232 229 225 206 209 217 204 209 227 231 225 230 212 211 226 250 229 230 235 229 247 256 263 280 282 296 319 308 320 313
230 234 228 231 233 232 230 227 225 229 233 229 232 233 232 234 235 231 214 213 218 220 214 219 228 230 234 235 225 222 219 251 279 224 247 237 253 266 277 282 287 300 303 292 277
224 230 227 233 232 226 234 237 236 240 236 239 229 226 225 229 228 221 221 219 225 220 231 234 237 235 234 238 239 231 228 227 251 286 291 221 242 267 273 282 289 294 299 288 285